STARLINK-36748, 67693

Orbit data source: Space-Track

STARLINK-36748, 67693 is a payload satellite owned by SpaceX/Seattle (US) in SSO that was launched on Sat, 07 Feb 2026 UTC via an FALCON 9 launch vehicle from the Air Force Western Test Range (AFWTR). Payload-class satellites include a variety of spacecraft equipped with specific instruments for various scientific and technological missions. These include communications satellites like Starlink; space stations such as the ISS; scientific satellites like the Hubble; Earth observation satellites from companies like Planet Labs, Umbra, and HawkEye 360; GPS; miniature CubeSats for education and research; and military/defense satellites.

Loading next visibility...
Identifier
67693, 2026-025A
Orbit
SSO
Country
Flag of USUS
Related business
Manufacturer
SpaceX/Seattle
Mission
Operational spacecraft
Bus & Motor
STARLINK V2MO, Unknown motor
Mass
575 kg wet, ~530 kg dry
Launch date (UTC)
2026-02-07 (1 month ago)
Launch vehicle
FALCON 9
Launch site
Air Force Western Test Range (AFWTR)
Object type
Payload
Rocket body
Debris
Shape & HBR
Unknown
Radar Cross Section
RCS unknown

Expand to show TLE details & history
Last TLE update: 12 hours ago

TLE from 12 hours ago
0 STARLINK-36748
1 67693U 26025A   26071.84536643  .00097181  00000-0  64418-3 0  9993
2 67693  97.2830 183.5334 0001440  82.8128 277.3301 15.75220108  6434
Epoch: 2026-03-12T20:17Z
TLE epoch observation values (Epoch: 2026-03-12T20:17:19.659Z)
Latitude
-0.00002°
Longitude
68.71208°
Altitude
347.05 km
Speed
7.701 km/s
True Right ascension
12h 14m 08s
True Declination
0° 00' 00"
Sunlit
Object was in full shadow at epoch
Visualization orbit readout
Latitude
Unknown
Longitude
Unknown
Altitude
Unknown
Speed
Unknown
Apparent Right ascension
Unknown
Apparent Declination
Unknown
Sunlit
N/A
Visualization observer readout
Local Sidereal Time
13:10:31
Azimuth
Unknown
Elevation
Unknown
Doppler factor
Unknown
Orbital elements
Apogee altitude
341.86 km
Perigee altitude
339.925 km
Semi-major axis
6,719.029 km
Eccentricity
0.00014
Inclination
97.283°
RAAN
183.5334°
Arg. of periapsis
82.8128°
True anomaly
277.31373°
Mean anomaly
277.3301°
Eccentric anomaly
277.32192°
Mean motion
3.94079 °/min
Orbital period
91.35 mins
BSTAR
0.00064418
Loading maneuver chart data...
Computing Atmospheric mass density...
Loading historical data...
Loading historical data...
Loading historical data...
Loading historical data...
Loading historical data...
Loading historical data...
Loading historical data...

Documentation

Showing up to 5 results
|